Lowell, ID

6:02 PM MDT on May 27, 2017 (GMT -0600)
Lowell

Weather History for KP69 - November, 2013

Change the Weather History Date:

Saturday, November 2, 2013

  Actual Average Record
Temperature  
Mean Temperature 42 °F -  
Max Temperature 46 °F 49 °F 57 °F (2016)
Min Temperature 39 °F 32 °F 18 °F (2002)
Degree Days  
Heating Degree Days 22    
Moisture  
Dew Point 40 °F    
Average Humidity 92    
Maximum Humidity 96    
Minimum Humidity 82    
Precipitation  
Precipitation 0.31 in - - ()
Sea Level Pressure  
Sea Level Pressure 29.89 in    
Wind  
Wind Speed 3 mph (NNW)    
Max Wind Speed 6 mph    
Max Gust Speed -    
Averages and records for this station are not official NWS values.
T = Trace of Precipitation, MM = Missing Value Source: NWS Daily Summary

Daily Weather History Graph

Daily Weather History Graph

Search for Another Location

Airport or City:

Trip Planner

Search our weather history database for the weather conditions in past years. The results will help you decide how hot, cold, wet, or windy it might be!

Date:

Astronomy

Nov. 02, 2013 Rise Set
Actual Time 8:23 AM MDT 6:26 PM MDT
Civil Twilight 7:52 AM MDT 6:57 PM MDT
Nautical Twilight 7:17 AM MDT 7:32 PM MDT
Astronomical Twilight 6:42 AM MDT 8:07 PM MDT
Moon 7:23 AM MDT (11/2) 6:01 PM MDT (11/2)
Length of Visible Light 11h 04m
Length of Day
10h 02m
Waning Crescent, 1% of the Moon is Illuminated
Nov 2
Waning Crescent
Nov 3
New
Nov 9
First Quarter
Nov 17
Full
Nov 25
Last Quarter

Hourly Weather History & Observations

Time (MDT) Temp. Windchill Dew Point Humidity Pressure Visibility Wind Dir Wind Speed Gust Speed Precip Events Conditions
12:52 AM 42.1 °F - 39.9 °F 92% 30.11 in - Calm Calm - N/A   Unknown
1:52 AM 42.1 °F 39.2 °F 39.0 °F 89% 30.08 in - NW 4.6 mph - N/A   Unknown
2:52 AM 41.0 °F 38.0 °F 39.0 °F 93% 30.06 in - NNW 4.6 mph - N/A   Unknown
3:52 AM 41.0 °F 37.1 °F 39.0 °F 93% 30.02 in - NW 5.8 mph - N/A   Unknown
4:52 AM 41.0 °F 38.0 °F 39.0 °F 93% 29.98 in - North 4.6 mph - N/A   Unknown
5:52 AM 41.0 °F 37.1 °F 37.9 °F 89% 29.95 in - NW 5.8 mph - N/A   Unknown
6:52 AM 39.9 °F 37.8 °F 37.9 °F 93% 29.92 in - North 3.5 mph - N/A   Unknown
7:52 AM 39.0 °F 34.8 °F 37.9 °F 96% 29.90 in - NNW 5.8 mph - N/A   Unknown
8:52 AM 39.0 °F 34.8 °F 37.0 °F 93% 29.86 in - NNW 5.8 mph - N/A   Unknown
9:52 AM 39.9 °F 35.8 °F 37.9 °F 93% 29.82 in - NNW 5.8 mph - N/A   Unknown
10:52 AM 44.1 °F 41.5 °F 39.0 °F 82% 29.79 in - North 4.6 mph - N/A   Unknown
11:52 AM 45.0 °F 43.5 °F 39.9 °F 82% 29.79 in - NW 3.5 mph - N/A   Unknown
12:52 PM 44.1 °F - 42.1 °F 93% 29.79 in - Calm Calm - 0.03 in   Unknown
1:52 PM 45.0 °F - 43.0 °F 93% 29.78 in - Calm Calm - 0.05 in   Unknown
2:52 PM 45.0 °F - 43.0 °F 93% 29.82 in - Calm Calm - 0.14 in   Unknown
3:52 PM 46.0 °F - 44.1 °F 93% 29.79 in - Calm Calm - 0.05 in   Unknown
4:52 PM 46.0 °F - 45.0 °F 96% 29.78 in - Calm Calm - N/A   Unknown
5:52 PM 46.0 °F - 44.1 °F 93% 29.81 in - Calm Calm - 0.03 in   Unknown
6:52 PM 46.0 °F - 44.1 °F 93% 29.82 in - Calm Calm - N/A   Unknown
7:52 PM 44.1 °F - 43.0 °F 96% 29.85 in - Calm Calm - N/A   Unknown
8:52 PM 43.0 °F - 39.9 °F 89% 29.88 in - Calm Calm - N/A   Unknown
9:52 PM 42.1 °F - 39.9 °F 92% 29.89 in - Calm Calm - 0.01 in   Unknown
10:52 PM 39.9 °F - 37.9 °F 93% 29.89 in - Calm Calm - N/A   Unknown
11:52 PM 39.9 °F - 37.9 °F 93% 29.91 in - Calm Calm - N/A   Unknown